Weather History for Chicago Executive, IL

Change the Weather History Date:

Saturday, December 10, 2011

  Actual Average Record
Temperature  
Mean Temperature 20 °F 29 °F  
Max Temperature 28 °F 37 °F 53 °F (2003)
Min Temperature 12 °F 22 °F -4 °F (2013)
Degree Days  
Heating Degree Days 45 36  
Month to date heating degree days 340  
Since 1 July heating degree days 1610  
Cooling Degree Days 0 0  
Month to date cooling degree days 0  
Year to date cooling degree days 789  
Moisture  
Dew Point 6 °F    
Average Humidity 50    
Maximum Humidity 65    
Minimum Humidity 36    
Precipitation  
Precipitation 0.00 in 0.06 in 0.56 in (2003)
Month to date precipitation 0.72  
Year to date precipitation 32.24  
Sea Level Pressure  
Sea Level Pressure 30.50 in    
Wind  
Wind Speed 8 mph (SW)    
Max Wind Speed 12 mph    
Max Gust Speed 20 mph    
Visibility 10 miles    
Events      
T = Trace of Precipitation, MM = Missing Value Source: NWS Daily Summary

Daily Weather History Graph

Daily Weather History Graph

Search for Another Location

Airport:

Trip Planner

Search our weather history database for the weather conditions in past years. The results will help you decide how hot, cold, wet, or windy it might be!

Date:

Astronomy

Dec. 10, 2011 Rise Set
Actual Time 7:08 AM CST 4:19 PM CST
Civil Twilight 6:37 AM CST 4:51 PM CST
Nautical Twilight 6:02 AM CST 5:26 PM CST
Astronomical Twilight 5:28 AM CST 6:00 PM CST
Moon 4:33 PM CST (12/10) 7:08 AM CST (12/10)
Length of Visible Light 10h 14m
Length of Day
9h 10m
Full, 100% of the Moon is Illuminated
Dec 10
Full
Dec 17
Last Quarter
Dec 24
New
Jan 1
First Quarter
Jan 9
Full

Hourly Weather History & Observations

Time (CST) Temp. Windchill Dew Point Humidity Pressure Visibility Wind Dir Wind Speed Gust Speed Precip Events Conditions
12:52 AM 18.0 °F 6.1 °F 3.9 °F 54% 30.48 in 10.0 mi WNW 10.4 mph - N/A   Clear
2:52 AM 16.0 °F 7.4 °F 1.0 °F 52% 30.49 in 10.0 mi West 5.8 mph - N/A   Clear
3:52 AM 15.1 °F 7.7 °F 1.0 °F 54% 30.48 in 10.0 mi West 4.6 mph - N/A   Clear
4:52 AM 14.0 °F 5.1 °F 3.0 °F 62% 30.50 in 10.0 mi West 5.8 mph - N/A   Clear
5:52 AM 12.9 °F 5.2 °F 3.0 °F 65% 30.51 in 10.0 mi West 4.6 mph - N/A   Clear
6:52 AM 12.9 °F 3.8 °F 3.0 °F 65% 30.54 in 10.0 mi West 5.8 mph - N/A   Clear
7:52 AM 14.0 °F 6.5 °F 3.0 °F 62% 30.54 in 10.0 mi WSW 4.6 mph - N/A   Clear
8:52 AM 17.1 °F 8.7 °F 3.0 °F 54% 30.56 in 10.0 mi WSW 5.8 mph - N/A   Clear
9:52 AM 19.9 °F 9.3 °F 3.0 °F 48% 30.57 in 10.0 mi West 9.2 mph - N/A   Clear
10:52 AM 23.0 °F 13.9 °F 1.9 °F 40% 30.56 in 10.0 mi WSW 8.1 mph - N/A   Clear
11:52 AM 25.0 °F 16.3 °F 1.0 °F 36% 30.53 in 10.0 mi WSW 8.1 mph - N/A   Clear
12:52 PM 27.0 °F 16.7 °F 3.9 °F 37% 30.50 in 10.0 mi SSW 11.5 mph - N/A   Clear
1:52 PM 27.0 °F 18.0 °F 3.0 °F 36% 30.48 in 10.0 mi SW 9.2 mph 19.6 mph N/A   Clear
2:52 PM 27.0 °F 16.7 °F 6.1 °F 41% 30.48 in 10.0 mi WSW 11.5 mph - N/A   Clear
3:52 PM 26.1 °F 19.4 °F 7.0 °F 44% 30.49 in 10.0 mi SW 5.8 mph - N/A   Clear
4:52 PM 25.0 °F 18.1 °F 6.1 °F 45% 30.49 in 10.0 mi SSW 5.8 mph - N/A   Clear
5:52 PM 24.1 °F 16.0 °F 7.0 °F 48% 30.48 in 10.0 mi South 6.9 mph - N/A   Clear
6:52 PM 26.1 °F 16.8 °F 8.1 °F 47% 30.48 in 10.0 mi SSW 9.2 mph - N/A   Overcast
7:52 PM 26.1 °F 16.8 °F 8.1 °F 47% 30.48 in 10.0 mi SSW 9.2 mph - N/A   Overcast
8:52 PM 27.0 °F 17.3 °F 9.0 °F 47% 30.47 in 10.0 mi SSW 10.4 mph - N/A   Overcast
9:37 PM 26.6 °F 17.5 °F 12.2 °F 55% 30.43 in 10.0 mi SSW 9.2 mph - N/A   Scattered Clouds
9:52 PM 27.0 °F 17.3 °F 12.0 °F 53% 30.46 in 10.0 mi SSW 10.4 mph - N/A   Partly Cloudy
10:52 PM 28.0 °F 19.3 °F 14.0 °F 56% 30.45 in 10.0 mi SSW 9.2 mph - N/A   Clear
11:52 PM 28.0 °F 19.3 °F 16.0 °F 61% 30.45 in 10.0 mi SSW 9.2 mph - N/A   Clear